User: anonymous
Location: Potawatomi Wildlife Park
(41.2308°N, 86.1050°W)
Time: 06:21:55
(UTC-04:00)
Language:

SL-16 R/B - Orbit

View from above orbital plane
View from above orbital plane
View from above satellite
View from above satellite

Ground track
Ground track

The orbit data is extracted from the following two-line orbital elements,

1 27006U 01056F   14293.43952439  .00000026  00000-0  76346-4 0  2705
2 27006 099.1782 095.6592 0013958 327.1641 086.0621 13.70925385643480
Epoch (UTC): 20 October 2014 10:32:54
Eccentricity: 0.0013958
inclination: 99.1782°
perigee height: 986 km
apogee height: 1006 km
right ascension of ascending node: 95.6592°
argument of perigee: 327.1641°
revolutions per day: 13.70925385
mean anomaly at epoch: 86.0621°
orbit number at epoch: 64348

The dashed part of the orbit path shows where the satellite is in the earth's shadow,  

DLR